SCP
0 0 0 0 0 0 1 1 1 1 1 1 1 1 1 0 0 0 0 0 0 0 0 0 0 0 1 1 1 1 1 2 1 1 0 0 0 0 0 0 0 0 0
0 0 0 0 1 1 1 1 1 1 1 1 1 1 1 1 0 0 0 0 0 0 0 1 1 1 1 0 1 1 1 1 1 1 0 0 0 0 0 0 0 0 0
0 0 0 0 0 1 1 1 1 1 1 0 0 1 1 1 0 0 0 0 0 0 0 0 1 1 2 1 1 1 2 2 2 1 0 0 0 0 0 0 0 0 0
0 0 0 0 0 0 1 1 1 1 1 1 1 1 1 0 0 0 0 0 0 0 0 0 0 0 1 1 1 2 2 2 2 2 0 0 0 0 0 0 0 0 0
0 0 0 0 0 0 1 1 1 1 1 1 1 1 1 0 0 0 0 0 0 0 0 0 0 0 0 0 1 1 1 1 1 2 1 0 0 0 0 0 0 0 0
-0 0 0 0 0 0 0 2 2 1 2 2 1 1 0 0 0 0 0 0 0 0 0 0 0 0 0 0 0 1 1 1 1 1 1 0 0 0 0 0 0 0 0
0 0 0 0 0 0 0 1 2 2 1 0 0 0 0 0 0 0 0 0 0 0 0 0 0 0 0 0 0 0 0 1 1 1 1 1 0 0 0 0 0 0 0
0 0 0 0 0 0 0 0 0 0 0 1 0 0 0 0 0 0 0 0 0 0 0 0 0 0 0 0 0 0 0 0 1 1 1 1 0 0 0 0 0 0 0
0 0 0 0 0 0 0 0 0 0 0 0 0 1 0 0 0 0 0 0 0 0 0 0 0 0 0 0 0 0 0 0 0 1 1 0 0 0 0 0 0 0 0
0 0 0 0 0 -0 0 0 0 0 0 0 0 0 0 0 0 0 0 0 0 0 0 0 0 0 0 0 0 0 0 0 0 0 0 0 0 0 0 0 0 0 0
0 0 0 0 0 0 0 0 0 0 0 0 0 0 0 0 0 0 0 0 0 0 0 0 0 0 0 0 0 0 0 0 0 0 0 0 0 0 0 0 0 0 0
0 0 0 0 0 0 0 0 0 0 0 0 0 0 0 1 0 0 0 0 0 0 0 0 0 0 0 0 0 0 0 0 0 0 0 0 0 0 0 0 0 0 0
0 0 0 0 0 0 0 0 0 0 0 0 0 0 0 0 0 0 0 0 0 0 0 0 0 0 0 0 0 0 0 0 0 0 0 0 0 0 0 0 0 0 0
0 0 0 0 0 0 0 0 0 0 0 0 0 0 0 0 0 0 0 0 0 0 0 0 0 0 0 0 0 0 0 0 0 0 0 0 0 0 0 0 0 0 0
0 0 0 0 0 0 0 0 0 0 0 -0 0 0 0 0 0 0 0 0 0 0 0 0 0 0 0 0 0 0 0 0 0 0 0 0 0 0 0 0 0 0 0
0 0 0 0 0 0 0 0 0 0 -0 -0 -0 -0 -0 -0 0 0 0 0 0 0 0 0 0 0 0 0 0 0 0 0 0 0 0 0 0 0 0 0 0 0 0
0 0 0 0 0 0 0 0 0 0 0 0 0 -0 -0 0 0 0 0 0 0 0 0 0 0 0 0 0 0 0 0 0 0 0 0 0 0 0 0 0 0 0 0
0 0 0 0 0 0 0 0 0 0 0 0 0 0 0 0 0 0 0 0 0 0 0 0 0 0 0 0 0 0 0 0 0 0 0 0 0 0 0 0 0 0 0
0 0 0 0 0 0 0 0 0 0 0 0 0 0 0 0 0 0 0 0 0 0 0 0 0 0 0 0 0 0 0 0 0 0 0 0 0 0 0 0 0 0 0
0 0 0 0 0 0 0 0 0 0 0 0 0 0 0 0 0 0 0 0 0 0 0 0 0 0 0 0 0 0 0 0 0 0 0 0 0 0 0 0 0 0 0
0 0 0 0 0 0 0 0 0 0 0 0 0 0 0 0 0 0 0 0 0 0 0 0 0 0 0 0 0 0 0 0 0 0 0 0 0 0 0 0 0 0 0
0 0 -0 -0 0 0 0 0 0 0 0 0 0 0 0 0 0 0 0 0 0 0 0 0 0 0 0 0 0 0 0 0 0 0 0 0 0 0 0 0 0 -0 -0
0 0 0 0 0 0 0 0 0 0 0 0 0 0 0 0 0 0 0 0 0 0 0 0 0 0 0 0 0 0 0 0 0 0 -0 0 0 0 0 0 -0 -0 -0
0 0 0 -0 -0 0 0 -0 -0 -0 -0 -0 0 0 0 0 -0 0 0 0 0 0 0 0 0 0 0 0 0 0 0 0 0 0 0 0 0 0 0 0 -0 -0 -0
0 0 0 -0 0 0 -0 -0 -0 -0 -0 -0 -0 -0 -0 -0 0 -0 0 0 0 0 0 0 0 0 0 0 0 0 0 0 -0 -0 0 -0 -0 -0 0 0 0 -0 -0
-0 -0 0 0 0 0 -0 0 0 -0 -0 -0 -0 -0 -0 -0 0 0 0 0 0 0 0 0 0 0 0 0 0 0 0 -0 -0 -0 -0 -0 0 0 0 0 0 0 0
Wind_Speed_500mb
55 57 62 61 56 56 54 53 57 57 54 53 51 47 40 40 40 39 36 35 37 38 39 42 44 45 47 50 48 50 54 62 68 69 67 62 68 62 57 53 52 48 44
58 58 56 64 70 66 62 59 60 58 57 51 51 48 45 47 45 40 40 41 43 45 46 48 47 48 52 54 58 57 59 57 62 69 70 73 72 69 65 60 57 54 49
57 58 61 61 64 75 74 67 66 67 62 57 52 51 51 48 45 41 38 36 39 44 50 56 59 60 64 63 64 64 61 62 60 67 71 79 77 78 71 69 63 59 52
56 60 61 62 62 65 76 77 69 67 66 64 56 54 50 50 49 46 44 41 36 39 43 47 51 56 57 57 59 62 60 64 67 71 72 75 83 84 78 74 68 63 54
53 55 61 60 56 58 69 74 73 60 55 65 66 52 53 52 47 46 41 36 37 38 42 41 39 41 45 51 51 56 62 65 67 75 76 78 78 87 87 80 71 63 53
56 55 54 55 54 53 62 69 68 57 54 58 51 46 50 49 45 44 38 34 34 36 37 40 44 44 44 46 51 55 55 62 70 75 82 85 91 89 94 89 73 62 52
57 59 60 55 53 48 56 62 54 57 53 68 50 42 57 49 40 32 28 33 32 40 43 48 50 49 49 47 46 51 58 60 59 71 79 86 94 103 95 91 73 73 66
55 58 63 58 51 55 45 49 46 58 56 56 54 49 41 46 44 34 30 33 39 45 42 46 45 46 47 49 53 56 57 64 60 60 66 72 105 77 64 53 67 66 67
50 54 59 60 54 53 49 38 41 55 59 51 53 50 19 28 35 44 37 38 39 39 41 46 49 43 37 40 45 53 62 61 58 54 54 65 79 79 58 78 79 70 66
55 54 55 55 52 49 50 31 32 41 50 54 54 55 56 50 17 20 33 38 44 43 47 43 47 44 37 39 42 43 52 52 48 53 51 53 51 55 77 83 74 55 54
64 62 61 52 49 44 43 37 25 23 30 39 45 44 42 39 38 35 30 41 44 52 50 42 39 40 40 35 42 33 32 29 28 50 52 50 63 80 89 80 63 51 37
69 65 69 57 45 43 38 38 23 28 22 27 33 37 34 27 25 26 28 44 50 49 42 39 34 30 28 24 22 25 28 4 19 48 60 58 32 22 25 53 33 36 30
70 68 65 56 50 44 40 35 33 21 18 23 31 40 49 51 46 45 37 47 47 38 30 30 28 23 20 10 3 11 18 19 16 3 14 11 15 19 21 20 18 15 16
66 61 54 47 47 45 44 38 36 34 32 32 27 29 30 35 41 38 33 33 36 31 29 22 17 19 14 9 9 10 13 18 7 6 11 11 18 19 7 6 7 10 17
58 51 43 42 42 44 38 39 35 41 40 34 33 33 32 27 32 32 28 28 25 17 15 17 16 17 14 18 16 8 5 5 3 3 1 2 8 7 4 4 8 16 19
47 44 36 36 38 37 34 33 32 34 36 40 38 30 29 26 24 24 22 23 24 29 20 16 17 15 21 22 14 7 9 3 13 23 23 21 16 10 11 10 14 16 16
37 37 33 30 30 30 30 28 24 19 21 26 24 16 13 14 14 15 16 21 22 22 26 27 22 19 27 27 21 16 13 21 26 26 24 20 17 17 16 12 14 13 15
32 31 27 22 24 26 22 20 16 14 11 8 8 7 6 7 11 15 16 17 20 17 17 26 22 27 33 24 31 21 26 26 27 23 21 24 22 19 15 14 18 22 15
22 20 18 18 20 19 17 14 14 13 12 12 9 8 7 10 16 16 16 14 13 14 19 23 26 32 40 34 35 28 29 30 24 18 19 23 20 19 13 14 19 18 16
17 12 11 11 14 13 14 14 15 14 14 14 16 16 16 17 17 14 14 9 7 7 13 22 23 35 43 45 39 38 39 28 22 17 13 17 14 9 11 12 15 17 18
12 13 12 12 13 14 13 15 15 12 11 15 18 21 18 14 8 13 13 13 13 6 12 23 31 43 49 53 45 49 42 31 21 13 11 13 14 13 13 16 19 17 13
17 16 19 23 23 21 16 17 17 16 14 14 22 33 17 11 8 5 10 14 15 17 16 24 35 47 46 51 43 40 32 30 21 11 9 18 17 19 21 20 19 17 17
18 22 25 25 23 22 19 22 24 22 14 19 33 27 28 18 17 17 15 11 19 21 23 27 34 37 42 34 34 34 31 30 17 15 9 23 20 21 22 17 18 18 18
29 26 24 22 22 22 25 24 30 24 24 22 24 24 26 32 29 27 31 35 34 31 32 28 29 27 31 27 38 28 30 25 23 13 15 22 22 24 20 17 16 19 20
28 27 27 31 29 26 26 29 33 24 19 20 20 20 23 24 25 25 27 29 26 26 20 23 27 28 28 39 31 25 29 29 22 15 18 26 27 27 24 23 25 21 22
27 29 28 29 27 25 27 26 26 25 29 28 21 21 21 13 17 22 25 22 20 25 17 12 20 26 31 27 26 26 27 18 16 17 22 24 19 14 19 28 26 25 27
Wind_Direction_500mb
309 300 286 275 266 263 265 267 270 267 267 270 273 273 275 272 275 278 278 280 279 278 281 283 280 279 278 278 275 275 274 268 261 261 261 257 262 257 257 255 258 261 266
314 306 295 284 275 263 260 264 264 268 267 271 269 264 270 270 274 276 281 274 272 277 280 282 282 282 284 280 278 278 272 274 267 263 262 257 261 254 254 253 254 257 261
313 309 307 297 280 270 265 261 262 264 260 264 263 262 261 264 271 274 284 283 279 276 276 278 277 276 275 277 278 274 266 265 266 266 264 263 261 253 251 250 251 253 258
316 310 307 303 300 276 266 262 263 267 255 254 259 261 259 261 268 269 277 275 282 289 287 288 287 283 280 279 274 267 268 265 261 262 265 264 264 256 253 246 249 248 251
332 318 308 303 300 288 268 263 260 268 259 249 254 255 258 259 261 269 273 281 288 290 293 294 296 292 284 277 278 271 265 262 261 262 264 266 265 263 252 244 242 247 249
333 330 321 308 302 288 273 262 258 256 257 247 245 260 255 251 259 264 272 286 286 292 293 292 292 294 294 288 278 270 269 265 260 259 261 264 268 264 251 237 234 244 247
333 332 330 324 310 299 283 265 252 243 247 247 247 244 250 249 254 261 275 295 296 294 293 294 292 290 287 288 287 280 272 267 266 257 256 259 259 249 243 229 227 233 248
335 336 332 328 318 311 292 267 253 240 238 239 241 234 241 244 241 248 270 288 294 297 300 302 298 293 290 290 293 286 286 269 261 261 250 260 240 219 214 239 253 246 243
331 330 333 332 326 318 318 276 251 246 244 235 235 230 216 244 263 266 266 287 288 293 304 314 314 305 304 303 297 290 286 274 259 250 249 245 244 213 248 237 234 235 242
336 336 328 328 330 322 318 315 262 242 248 247 234 229 240 246 251 275 278 281 290 300 313 313 321 321 322 326 320 316 288 278 251 245 252 217 213 228 217 216 227 230 233
329 332 332 322 321 325 316 297 291 244 228 230 227 220 217 231 243 259 271 285 290 300 309 313 308 317 330 342 343 335 343 319 260 235 225 211 188 208 213 212 222 235 249
319 322 327 318 309 311 310 306 282 270 249 227 216 218 234 245 269 263 272 284 293 301 311 311 309 303 316 334 359 30 30 168 157 170 162 161 140 151 166 209 235 245 250
312 316 320 312 311 304 309 300 293 269 260 256 259 261 264 266 270 271 275 273 286 299 305 304 307 298 296 327 89 40 39 12 4 2 191 213 195 209 244 235 231 226 229
305 307 307 302 305 305 302 303 294 281 293 298 287 274 265 262 270 274 269 272 282 283 292 293 303 323 304 218 241 302 355 14 0 164 169 236 246 261 239 178 211 250 263
295 295 296 297 302 303 304 301 296 284 283 297 295 294 291 282 279 275 264 262 252 265 271 280 283 286 258 247 258 271 346 27 294 224 282 141 101 83 40 11 294 281 277
294 291 292 298 303 313 316 313 305 298 287 286 294 294 289 290 281 275 275 266 249 237 248 243 258 266 238 236 230 220 158 204 125 110 101 89 74 36 3 324 291 287 277
294 288 293 296 314 317 315 310 311 313 305 293 289 292 286 294 287 290 288 278 260 239 233 240 240 233 215 218 188 172 142 126 115 102 91 69 50 29 18 346 348 315 288
310 299 295 295 309 309 310 309 311 313 325 312 303 323 342 327 319 321 307 286 273 260 241 224 223 198 200 197 173 164 139 130 118 107 76 45 40 36 18 357 353 334 324
319 323 314 307 308 314 312 315 326 333 344 349 354 343 351 350 351 335 325 311 281 264 237 222 215 189 183 174 162 149 137 126 115 101 60 31 41 28 9 13 359 6 5
325 326 319 312 322 328 332 335 337 343 351 2 9 3 357 356 356 354 354 341 313 243 195 196 193 181 178 165 169 153 141 143 123 92 45 26 51 45 33 27 44 23 15
6 4 360 354 2 15 31 30 22 17 13 24 31 30 27 13 33 23 18 49 44 77 153 173 177 174 169 162 161 155 154 151 141 109 40 53 69 68 52 62 58 36 22
65 46 43 55 58 50 59 36 30 45 54 66 65 62 60 100 95 79 71 65 77 85 135 158 163 164 158 160 156 162 162 166 154 133 44 76 79 75 75 69 56 40 31
51 74 57 45 41 39 37 30 24 29 60 85 77 76 67 101 105 95 80 90 113 112 128 125 137 147 153 165 173 167 170 178 160 139 83 89 83 79 74 64 50 40 27
47 46 46 52 50 54 55 46 28 59 79 79 94 75 68 74 84 94 95 93 95 98 97 109 141 134 147 156 159 163 181 168 143 119 113 103 93 83 70 57 44 50 51
51 52 58 63 53 62 62 48 43 59 74 88 83 87 85 81 84 85 77 80 77 74 78 106 117 123 148 136 129 160 179 168 142 120 123 113 104 85 64 57 54 60 45
70 69 70 66 65 59 59 59 52 51 80 80 92 77 63 58 70 65 65 55 51 46 48 107 136 136 134 149 156 168 159 154 141 115 127 126 112 94 55 53 66 66 52
Wind_Speed_850mb
55 57 62 61 56 56 54 53 57 57 54 53 51 47 40 40 40 39 36 35 37 38 39 42 44 45 47 50 48 50 54 62 68 69 67 62 68 62 57 53 52 48 44
58 58 56 64 70 66 62 59 60 58 57 51 51 48 45 47 45 40 40 41 43 45 46 48 47 48 52 54 58 57 59 57 62 69 70 73 72 69 65 60 57 54 49
57 58 61 61 64 75 74 67 66 67 62 57 52 51 51 48 45 41 38 36 39 44 50 56 59 60 64 63 64 64 61 62 60 67 71 79 77 78 71 69 63 59 52
56 60 61 62 62 65 76 77 69 67 66 64 56 54 50 50 49 46 44 41 36 39 43 47 51 56 57 57 59 62 60 64 67 71 72 75 83 84 78 74 68 63 54
53 55 61 60 56 58 69 74 73 60 55 65 66 52 53 52 47 46 41 36 37 38 42 41 39 41 45 51 51 56 62 65 67 75 76 78 78 87 87 80 71 63 53
56 55 54 55 54 53 62 69 68 57 54 58 51 46 50 49 45 44 38 34 34 36 37 40 44 44 44 46 51 55 55 62 70 75 82 85 91 89 94 89 73 62 52
57 59 60 55 53 48 56 62 54 57 53 68 50 42 57 49 40 32 28 33 32 40 43 48 50 49 49 47 46 51 58 60 59 71 79 86 94 103 95 91 73 73 66
55 58 63 58 51 55 45 49 46 58 56 56 54 49 41 46 44 34 30 33 39 45 42 46 45 46 47 49 53 56 57 64 60 60 66 72 105 77 64 53 67 66 67
50 54 59 60 54 53 49 38 41 55 59 51 53 50 19 28 35 44 37 38 39 39 41 46 49 43 37 40 45 53 62 61 58 54 54 65 79 79 58 78 79 70 66
55 54 55 55 52 49 50 31 32 41 50 54 54 55 56 50 17 20 33 38 44 43 47 43 47 44 37 39 42 43 52 52 48 53 51 53 51 55 77 83 74 55 54
64 62 61 52 49 44 43 37 25 23 30 39 45 44 42 39 38 35 30 41 44 52 50 42 39 40 40 35 42 33 32 29 28 50 52 50 63 80 89 80 63 51 37
69 65 69 57 45 43 38 38 23 28 22 27 33 37 34 27 25 26 28 44 50 49 42 39 34 30 28 24 22 25 28 4 19 48 60 58 32 22 25 53 33 36 30
70 68 65 56 50 44 40 35 33 21 18 23 31 40 49 51 46 45 37 47 47 38 30 30 28 23 20 10 3 11 18 19 16 3 14 11 15 19 21 20 18 15 16
66 61 54 47 47 45 44 38 36 34 32 32 27 29 30 35 41 38 33 33 36 31 29 22 17 19 14 9 9 10 13 18 7 6 11 11 18 19 7 6 7 10 17
58 51 43 42 42 44 38 39 35 41 40 34 33 33 32 27 32 32 28 28 25 17 15 17 16 17 14 18 16 8 5 5 3 3 1 2 8 7 4 4 8 16 19
47 44 36 36 38 37 34 33 32 34 36 40 38 30 29 26 24 24 22 23 24 29 20 16 17 15 21 22 14 7 9 3 13 23 23 21 16 10 11 10 14 16 16
37 37 33 30 30 30 30 28 24 19 21 26 24 16 13 14 14 15 16 21 22 22 26 27 22 19 27 27 21 16 13 21 26 26 24 20 17 17 16 12 14 13 15
32 31 27 22 24 26 22 20 16 14 11 8 8 7 6 7 11 15 16 17 20 17 17 26 22 27 33 24 31 21 26 26 27 23 21 24 22 19 15 14 18 22 15
22 20 18 18 20 19 17 14 14 13 12 12 9 8 7 10 16 16 16 14 13 14 19 23 26 32 40 34 35 28 29 30 24 18 19 23 20 19 13 14 19 18 16
17 12 11 11 14 13 14 14 15 14 14 14 16 16 16 17 17 14 14 9 7 7 13 22 23 35 43 45 39 38 39 28 22 17 13 17 14 9 11 12 15 17 18
12 13 12 12 13 14 13 15 15 12 11 15 18 21 18 14 8 13 13 13 13 6 12 23 31 43 49 53 45 49 42 31 21 13 11 13 14 13 13 16 19 17 13
17 16 19 23 23 21 16 17 17 16 14 14 22 33 17 11 8 5 10 14 15 17 16 24 35 47 46 51 43 40 32 30 21 11 9 18 17 19 21 20 19 17 17
18 22 25 25 23 22 19 22 24 22 14 19 33 27 28 18 17 17 15 11 19 21 23 27 34 37 42 34 34 34 31 30 17 15 9 23 20 21 22 17 18 18 18
29 26 24 22 22 22 25 24 30 24 24 22 24 24 26 32 29 27 31 35 34 31 32 28 29 27 31 27 38 28 30 25 23 13 15 22 22 24 20 17 16 19 20
28 27 27 31 29 26 26 29 33 24 19 20 20 20 23 24 25 25 27 29 26 26 20 23 27 28 28 39 31 25 29 29 22 15 18 26 27 27 24 23 25 21 22
27 29 28 29 27 25 27 26 26 25 29 28 21 21 21 13 17 22 25 22 20 25 17 12 20 26 31 27 26 26 27 18 16 17 22 24 19 14 19 28 26 25 27
Wind_Direction_850mb
309 300 286 275 266 263 265 267 270 267 267 270 273 273 275 272 275 278 278 280 279 278 281 283 280 279 278 278 275 275 274 268 261 261 261 257 262 257 257 255 258 261 266
314 306 295 284 275 263 260 264 264 268 267 271 269 264 270 270 274 276 281 274 272 277 280 282 282 282 284 280 278 278 272 274 267 263 262 257 261 254 254 253 254 257 261
313 309 307 297 280 270 265 261 262 264 260 264 263 262 261 264 271 274 284 283 279 276 276 278 277 276 275 277 278 274 266 265 266 266 264 263 261 253 251 250 251 253 258
316 310 307 303 300 276 266 262 263 267 255 254 259 261 259 261 268 269 277 275 282 289 287 288 287 283 280 279 274 267 268 265 261 262 265 264 264 256 253 246 249 248 251
332 318 308 303 300 288 268 263 260 268 259 249 254 255 258 259 261 269 273 281 288 290 293 294 296 292 284 277 278 271 265 262 261 262 264 266 265 263 252 244 242 247 249
333 330 321 308 302 288 273 262 258 256 257 247 245 260 255 251 259 264 272 286 286 292 293 292 292 294 294 288 278 270 269 265 260 259 261 264 268 264 251 237 234 244 247
333 332 330 324 310 299 283 265 252 243 247 247 247 244 250 249 254 261 275 295 296 294 293 294 292 290 287 288 287 280 272 267 266 257 256 259 259 249 243 229 227 233 248
335 336 332 328 318 311 292 267 253 240 238 239 241 234 241 244 241 248 270 288 294 297 300 302 298 293 290 290 293 286 286 269 261 261 250 260 240 219 214 239 253 246 243
331 330 333 332 326 318 318 276 251 246 244 235 235 230 216 244 263 266 266 287 288 293 304 314 314 305 304 303 297 290 286 274 259 250 249 245 244 213 248 237 234 235 242
336 336 328 328 330 322 318 315 262 242 248 247 234 229 240 246 251 275 278 281 290 300 313 313 321 321 322 326 320 316 288 278 251 245 252 217 213 228 217 216 227 230 233
329 332 332 322 321 325 316 297 291 244 228 230 227 220 217 231 243 259 271 285 290 300 309 313 308 317 330 342 343 335 343 319 260 235 225 211 188 208 213 212 222 235 249
319 322 327 318 309 311 310 306 282 270 249 227 216 218 234 245 269 263 272 284 293 301 311 311 309 303 316 334 359 30 30 168 157 170 162 161 140 151 166 209 235 245 250
312 316 320 312 311 304 309 300 293 269 260 256 259 261 264 266 270 271 275 273 286 299 305 304 307 298 296 327 89 40 39 12 4 2 191 213 195 209 244 235 231 226 229
305 307 307 302 305 305 302 303 294 281 293 298 287 274 265 262 270 274 269 272 282 283 292 293 303 323 304 218 241 302 355 14 0 164 169 236 246 261 239 178 211 250 263
295 295 296 297 302 303 304 301 296 284 283 297 295 294 291 282 279 275 264 262 252 265 271 280 283 286 258 247 258 271 346 27 294 224 282 141 101 83 40 11 294 281 277
294 291 292 298 303 313 316 313 305 298 287 286 294 294 289 290 281 275 275 266 249 237 248 243 258 266 238 236 230 220 158 204 125 110 101 89 74 36 3 324 291 287 277
294 288 293 296 314 317 315 310 311 313 305 293 289 292 286 294 287 290 288 278 260 239 233 240 240 233 215 218 188 172 142 126 115 102 91 69 50 29 18 346 348 315 288
310 299 295 295 309 309 310 309 311 313 325 312 303 323 342 327 319 321 307 286 273 260 241 224 223 198 200 197 173 164 139 130 118 107 76 45 40 36 18 357 353 334 324
319 323 314 307 308 314 312 315 326 333 344 349 354 343 351 350 351 335 325 311 281 264 237 222 215 189 183 174 162 149 137 126 115 101 60 31 41 28 9 13 359 6 5
325 326 319 312 322 328 332 335 337 343 351 2 9 3 357 356 356 354 354 341 313 243 195 196 193 181 178 165 169 153 141 143 123 92 45 26 51 45 33 27 44 23 15
6 4 360 354 2 15 31 30 22 17 13 24 31 30 27 13 33 23 18 49 44 77 153 173 177 174 169 162 161 155 154 151 141 109 40 53 69 68 52 62 58 36 22
65 46 43 55 58 50 59 36 30 45 54 66 65 62 60 100 95 79 71 65 77 85 135 158 163 164 158 160 156 162 162 166 154 133 44 76 79 75 75 69 56 40 31
51 74 57 45 41 39 37 30 24 29 60 85 77 76 67 101 105 95 80 90 113 112 128 125 137 147 153 165 173 167 170 178 160 139 83 89 83 79 74 64 50 40 27
47 46 46 52 50 54 55 46 28 59 79 79 94 75 68 74 84 94 95 93 95 98 97 109 141 134 147 156 159 163 181 168 143 119 113 103 93 83 70 57 44 50 51
51 52 58 63 53 62 62 48 43 59 74 88 83 87 85 81 84 85 77 80 77 74 78 106 117 123 148 136 129 160 179 168 142 120 123 113 104 85 64 57 54 60 45
70 69 70 66 65 59 59 59 52 51 80 80 92 77 63 58 70 65 65 55 51 46 48 107 136 136 134 149 156 168 159 154 141 115 127 126 112 94 55 53 66 66 52